Weather History for Fort Knox, KY

Change the Weather History Date:

Friday, October 11, 2013

  Actual Average Record
Temperature  
Mean Temperature 60 °F -  
Max Temperature 75 °F 67 °F 87 °F (2010)
Min Temperature 46 °F 46 °F 30 °F (2012)
Degree Days  
Heating Degree Days 4    
Growing Degree Days 10 (Base 50)    
Moisture  
Dew Point 51 °F    
Average Humidity 83    
Maximum Humidity 100    
Minimum Humidity 42    
Precipitation  
Precipitation 0.00 in - - ()
Sea Level Pressure  
Sea Level Pressure 30.06 in    
Wind  
Wind Speed 0 mph (East)    
Max Wind Speed 4 mph    
Max Gust Speed -    
Visibility 8 miles    
Events      
Averages and records for this station are not official NWS values.
T = Trace of Precipitation, MM = Missing Value Source: NWS Daily Summary

Daily Weather History Graph

Daily Weather History Graph

Search for Another Location

Airport:

Trip Planner

Search our weather history database for the weather conditions in past years. The results will help you decide how hot, cold, wet, or windy it might be!

Date:

Astronomy

Oct. 11, 2013 Rise Set
Actual Time 7:48 AM EDT 7:11 PM EDT
Civil Twilight 7:22 AM EDT 7:37 PM EDT
Nautical Twilight 6:51 AM EDT 8:08 PM EDT
Astronomical Twilight 6:21 AM EDT 8:38 PM EDT
Moon 2:27 PM EDT (10/11) No Moon Set
Length of Visible Light 12h 15m
Length of Day
11h 22m
Waxing Crescent, 47% of the Moon is Illuminated
Oct 11
Waxing Crescent
Oct 11
First Quarter
Oct 18
Full
Oct 26
Last Quarter
Nov 3
New

Hourly Weather History & Observations

Time (EDT) Temp. Dew Point Humidity Pressure Visibility Wind Dir Wind Speed Gust Speed Precip Events Conditions
12:58 AM 50.5 °F 50.0 °F 98% 30.06 in 10.0 mi Calm Calm - N/A   Clear
1:58 AM 49.8 °F 49.1 °F 97% 30.06 in 10.0 mi Calm Calm - N/A   Clear
2:58 AM 49.3 °F 48.9 °F 99% 30.06 in 6.0 mi Calm Calm - N/A   Clear
3:58 AM 48.7 °F 48.7 °F 100% 30.06 in 9.0 mi Calm Calm - N/A   Clear
4:58 AM 48.0 °F 47.8 °F 99% 30.06 in 10.0 mi Calm Calm - N/A   Clear
5:08 AM 48.2 °F 48.2 °F 100% 30.06 in 2.5 mi Calm Calm - N/A   Clear
5:13 AM 48.2 °F 48.2 °F 100% 30.06 in 4.0 mi Calm Calm - N/A   Clear
5:23 AM 48.2 °F 48.2 °F 100% 30.06 in 2.0 mi Calm Calm - N/A   Clear
5:28 AM 48.2 °F 48.2 °F 100% 30.06 in 0.8 mi Calm Calm - N/A   Clear
5:38 AM 48.2 °F 48.2 °F 100% 30.07 in 1.5 mi Calm Calm - N/A   Clear
5:43 AM 48.2 °F 48.2 °F 100% 30.07 in 3.0 mi Calm Calm - N/A   Clear
5:58 AM 47.8 °F 47.8 °F 100% 30.07 in 10.0 mi Calm Calm - N/A   Clear
6:38 AM 46.4 °F 46.4 °F 100% 30.08 in 2.5 mi Calm Calm - N/A   Clear
6:43 AM 48.2 °F 48.2 °F 100% 30.08 in 5.0 mi Calm Calm - N/A   Clear
6:58 AM 47.7 °F 47.7 °F 100% 30.09 in 10.0 mi Calm Calm - N/A   Clear
7:55 AM 48.2 °F 48.2 °F 100% 30.10 in 6.0 mi Calm Calm - N/A   Clear
8:58 AM 51.8 °F 51.8 °F 100% 30.11 in 10.0 mi Calm Calm - N/A   Clear
9:58 AM 60.1 °F 52.5 °F 76% 30.12 in 10.0 mi ENE 3.5 mph - N/A   Clear
10:58 AM 64.9 °F 51.1 °F 61% 30.12 in 10.0 mi NE 2.3 mph - N/A   Clear
11:58 AM 68.5 °F 50.7 °F 53% 30.11 in 10.0 mi East 1.2 mph - N/A   Clear
12:56 PM 69.8 °F 48.2 °F 46% 30.09 in 10.0 mi Variable 2.3 mph - N/A   Clear
1:57 PM 73.4 °F 50.0 °F 44% 30.06 in 10.0 mi Calm Calm - N/A   Clear
2:58 PM 74.7 °F 50.5 °F 43% 30.05 in 10.0 mi Variable 3.5 mph - N/A   Clear
3:58 PM 74.8 °F 50.9 °F 43% 30.04 in 10.0 mi ENE 3.5 mph - N/A   Clear
4:58 PM 75.9 °F 51.3 °F 42% 30.03 in 10.0 mi South 3.5 mph - N/A   Clear
5:58 PM 75.2 °F 52.5 °F 45% 30.02 in 10.0 mi Calm Calm - N/A   Clear
6:58 PM 68.5 °F 58.5 °F 70% 30.02 in 10.0 mi Calm Calm - N/A   Clear
7:58 PM 61.3 °F 56.8 °F 85% 30.03 in 10.0 mi Calm Calm - N/A   Clear
8:58 PM 58.6 °F 55.0 °F 88% 30.04 in 10.0 mi Calm Calm - N/A   Clear
9:58 PM 59.2 °F 55.6 °F 88% 30.03 in 10.0 mi Calm Calm - N/A   Clear
10:58 PM 57.7 °F 55.2 °F 91% 30.04 in 10.0 mi Calm Calm - N/A   Clear
11:58 PM 55.4 °F 55.0 °F 99% 30.03 in 10.0 mi Calm Calm - N/A   Clear